Weather History for Burnet, TX

Change the Weather History Date:

Friday, April 19, 2013

  Actual Average Record
Temperature  
Mean Temperature 52 °F -  
Max Temperature 68 °F 76 °F 88 °F (2006)
Min Temperature 37 °F 55 °F 37 °F (2013)
Degree Days  
Heating Degree Days 14    
Growing Degree Days 2 (Base 50)    
Moisture  
Dew Point 26 °F    
Average Humidity 40    
Maximum Humidity 79    
Minimum Humidity 15    
Precipitation  
Precipitation 0.00 in - - ()
Sea Level Pressure  
Sea Level Pressure 30.23 in    
Wind  
Wind Speed 6 mph (North)    
Max Wind Speed 17 mph    
Max Gust Speed 24 mph    
Visibility 10 miles    
Events      
Averages and records for this station are not official NWS values.
T = Trace of Precipitation, MM = Missing Value Source: NWS Daily Summary

Daily Weather History Graph

Daily Weather History Graph

Search for Another Location

Airport:

Trip Planner

Search our weather history database for the weather conditions in past years. The results will help you decide how hot, cold, wet, or windy it might be!

Date:

Astronomy

Apr. 19, 2013 Rise Set
Actual Time 7:00 AM CDT 8:03 PM CDT
Civil Twilight 6:35 AM CDT 8:28 PM CDT
Nautical Twilight 6:06 AM CDT 8:58 PM CDT
Astronomical Twilight 5:35 AM CDT 9:28 PM CDT
Moon 2:13 PM CDT (4/19) 2:51 AM CDT (4/19)
Length of Visible Light 13h 52m
Length of Day
13h 03m
First Quarter, 62% of the Moon is Illuminated
Apr 19
First Quarter
Apr 25
Full
May 2
Last Quarter
May 9
New
May 17
First Quarter

Hourly Weather History & Observations

Time (CDT) Temp. Windchill Dew Point Humidity Pressure Visibility Wind Dir Wind Speed Gust Speed Precip Events Conditions
12:53 AM 48.0 °F - 33.1 °F 56% 30.14 in 10.0 mi NNE 6.9 mph - N/A   Clear
1:53 AM 45.0 °F - 33.1 °F 63% 30.18 in 10.0 mi Calm Calm - N/A   Clear
2:53 AM 44.1 °F 42.5 °F 32.0 °F 63% 30.20 in 10.0 mi North 3.5 mph - N/A   Clear
3:53 AM 42.1 °F 40.2 °F 32.0 °F 67% 30.22 in 10.0 mi North 3.5 mph - N/A   Clear
4:53 AM 39.9 °F - 32.0 °F 73% 30.24 in 10.0 mi Calm Calm - N/A   Clear
5:53 AM 43.0 °F 41.3 °F 30.0 °F 60% 30.25 in 10.0 mi NNW 3.5 mph - N/A   Clear
6:53 AM 37.0 °F 33.3 °F 30.9 °F 79% 30.27 in 10.0 mi North 4.6 mph - N/A   Clear
7:53 AM 44.1 °F 40.8 °F 32.0 °F 63% 30.28 in 10.0 mi WNW 5.8 mph - N/A   Clear
8:53 AM 46.9 °F - 33.1 °F 59% 30.30 in 10.0 mi West 8.1 mph - N/A   Clear
9:53 AM 52.0 °F - 21.9 °F 31% 30.31 in 10.0 mi NNW 13.8 mph 20.7 mph N/A   Clear
10:53 AM 55.9 °F - 24.1 °F 29% 30.32 in 10.0 mi NNW 13.8 mph 20.7 mph N/A   Clear
11:53 AM 60.1 °F - 21.0 °F 22% 30.31 in 10.0 mi NNW 11.5 mph 18.4 mph N/A   Clear
12:53 PM 63.0 °F - 18.0 °F 18% 30.29 in 10.0 mi North 12.7 mph 24.2 mph N/A   Clear
1:53 PM 64.0 °F - 21.0 °F 19% 30.27 in 10.0 mi North 13.8 mph 19.6 mph N/A   Clear
2:53 PM 66.0 °F - 19.9 °F 17% 30.24 in 10.0 mi NNW 17.3 mph 23.0 mph N/A   Clear
3:53 PM 66.0 °F - 19.9 °F 17% 30.22 in 10.0 mi NW 13.8 mph 23.0 mph N/A   Clear
4:53 PM 66.0 °F - 19.0 °F 17% 30.18 in 10.0 mi NW 8.1 mph 18.4 mph N/A   Clear
5:53 PM 66.9 °F - 18.0 °F 15% 30.17 in 10.0 mi North 9.2 mph - N/A   Clear
6:53 PM 66.0 °F - 19.9 °F 17% 30.17 in 10.0 mi North 8.1 mph - N/A   Clear
7:53 PM 62.1 °F - 21.9 °F 21% 30.17 in 10.0 mi NNE 3.5 mph - N/A   Clear
8:53 PM 55.9 °F - 30.0 °F 37% 30.19 in 10.0 mi Calm Calm - N/A   Clear
9:53 PM 53.1 °F - 28.9 °F 40% 30.21 in 10.0 mi NNE 4.6 mph - N/A   Clear
10:53 PM 51.1 °F - 28.0 °F 41% 30.21 in 10.0 mi NE 3.5 mph - N/A   Clear
11:53 PM 52.0 °F - 27.0 °F 38% 30.21 in 10.0 mi East 5.8 mph - N/A   Clear